Lamar, CO

10:37 AM MST on November 15, 2019 (GMT -0700)
Lamar Municipal

Weather History for KLAA - September, 2019

Change the Weather History Date:

Tuesday, September 3, 2019

  Actual Average Record
Temperature  
Mean Temperature 76 °F 71 °F  
Max Temperature 98 °F 87 °F 104 °F (2014)
Min Temperature 54 °F 56 °F 37 °F (1974)
Degree Days  
Heating Degree Days 0 1  
Month to date heating degree days 0 2  
Since 1 July heating degree days 0 7  
Cooling Degree Days 11 7  
Month to date cooling degree days 47 21  
Year to date cooling degree days 1149 1010  
Growing Degree Days 26 (Base 50)    
Moisture  
Dew Point 55 °F    
Average Humidity 51    
Maximum Humidity 83    
Minimum Humidity 18    
Precipitation  
Precipitation 0.00 in 0.06 in 1.33 in (1918)
Month to date precipitation 0.00 0.17  
Year to date precipitation 7.23 12.54  
Sea Level Pressure  
Sea Level Pressure 29.90 in    
Wind  
Wind Speed 10 mph (NE)    
Max Wind Speed 25 mph    
Max Gust Speed 32 mph    
Visibility 10 miles    
Events      
T = Trace of Precipitation, MM = Missing Value Source: NWS Daily Summary

Daily Weather History Graph

Daily Weather History Graph

Search for Another Location

Airport or City:

Astronomy

Sep. 03, 2019 Rise Set
Actual Time 6:22 AM MDT 7:17 PM MDT
Civil Twilight 5:55 AM MDT 7:44 PM MDT
Nautical Twilight 5:23 AM MDT 8:16 PM MDT
Astronomical Twilight 4:50 AM MDT 8:49 PM MDT
Moon 11:13 AM MDT (9/3) 10:20 PM MDT (9/3)
Length of Visible Light 13h 49m
Length of Day
12h 55m
Waxing Crescent, 25% of the Moon is Illuminated
Sep 3
Waxing Crescent
Sep 5
First Quarter
Sep 13
Full
Sep 21
Last Quarter
Sep 28
New

Hourly Weather History & Observations

Time (MDT) Temp. Heat Index Dew Point Humidity Pressure Visibility Wind Dir Wind Speed Gust Speed Precip Events Conditions
12:53 AM 77.0 °F - 48.9 °F 37% 29.80 in 10.0 mi SSW 15.0 mph - N/A   Clear
1:53 AM 70.0 °F - 50.0 °F 49% 29.81 in 10.0 mi Variable 3.5 mph - N/A   Clear
2:53 AM 66.9 °F - 50.0 °F 54% 29.80 in 10.0 mi Calm Calm - N/A   Clear
3:53 AM 66.9 °F - 51.1 °F 57% 29.80 in 10.0 mi ENE 5.8 mph - N/A   Clear
4:53 AM 64.0 °F - 52.0 °F 65% 29.81 in 10.0 mi ENE 4.6 mph - N/A   Clear
5:53 AM 57.0 °F - 50.0 °F 77% 29.84 in 10.0 mi ENE 3.5 mph - N/A   Clear
6:53 AM 55.0 °F - 50.0 °F 83% 29.87 in 10.0 mi Calm Calm - N/A   Clear
7:53 AM 64.9 °F - 53.1 °F 65% 29.87 in 10.0 mi Calm Calm - N/A   Clear
8:53 AM 72.0 °F - 54.0 °F 53% 29.88 in 10.0 mi NW 4.6 mph - N/A   Clear
9:53 AM 81.0 °F 80.5 °F 54.0 °F 39% 29.86 in 10.0 mi North 4.6 mph - N/A   Clear
10:53 AM 90.0 °F - 51.1 °F 26% 29.86 in 10.0 mi North 9.2 mph - N/A   Clear
11:53 AM 97.0 °F - 46.0 °F 18% 29.85 in 10.0 mi NNE 17.3 mph 24.2 mph N/A   Clear
12:53 PM 97.0 °F - 50.0 °F 20% 29.86 in 10.0 mi North 18.4 mph 26.5 mph N/A   Clear
1:53 PM 97.0 °F 94.6 °F 54.0 °F 23% 29.86 in 10.0 mi NNE 19.6 mph - N/A   Clear
2:53 PM 96.1 °F 93.5 °F 53.1 °F 23% 29.87 in 10.0 mi NNE 20.7 mph - N/A   Clear
3:53 PM 95.0 °F 94.8 °F 60.1 °F 31% 29.87 in 10.0 mi NE 18.4 mph 29.9 mph N/A   Clear
4:53 PM 91.9 °F 90.0 °F 55.0 °F 29% 29.90 in 10.0 mi NE 19.6 mph 27.6 mph N/A   Clear
5:53 PM 89.1 °F 87.7 °F 57.0 °F 34% 29.93 in 10.0 mi NE 15.0 mph - N/A   Clear
6:53 PM 84.0 °F 84.0 °F 60.1 °F 44% 29.95 in 10.0 mi NE 11.5 mph - N/A   Clear
7:53 PM 79.0 °F - 64.0 °F 60% 29.98 in 10.0 mi ENE 13.8 mph - N/A   Clear
8:53 PM 75.9 °F - 63.0 °F 64% 30.00 in 10.0 mi ENE 10.4 mph - N/A   Clear
9:53 PM 73.9 °F - 62.1 °F 66% 30.00 in 10.0 mi ENE 12.7 mph - N/A   Clear
10:53 PM 72.0 °F - 60.1 °F 66% 30.02 in 10.0 mi NE 11.5 mph - N/A   Scattered Clouds
11:01 PM 72.0 °F - 59.0 °F 64% 30.19 in 10.0 mi NE 10.4 mph - N/A   Mostly Cloudy
11:53 PM 72.0 °F - 59.0 °F 64% 30.02 in 10.0 mi NE 9.2 mph - N/A   Overcast